Location: Piotrkow Trybunalski
(51.4000°N, 19.6830°E)
Time: 05:15:35
(UTC+02:00)

A-11 Canister half - Pass Details

Date: 31 January 2023
Orbit: 1526 x 1682 km, 47.3° (Epoch: 25 March)

Event Time Altitude Azimuth Distance (km) Brightness Sun altitude
Rises 06:57:20 0° 232° (SW) 4,668 11.2 -4.2°
Reaches altitude 10° 07:00:26 10° 227° (SW) 3,690 10.8 -3.8°
Maximum altitude 07:09:19 52° 155° (SSE) 1,854 9.9 -2.5°
Drops below altitude 10° 07:18:23 10° 83° (E) 3,771 12.1 -1.2°
Sets 07:21:35 0° 78° (ENE) 4,777 12.5 -0.8°
